Weather History for KLCI - March, 2013

Change the Weather History Date:

Thursday, March 7, 2013

  Actual Average Record
Temperature  
Mean Temperature 32 °F -  
Max Temperature 33 °F 37 °F 55 °F (2012)
Min Temperature 30 °F 16 °F -7 °F (2007)
Degree Days  
Heating Degree Days 34    
Moisture  
Dew Point 22 °F    
Average Humidity 71    
Maximum Humidity 86    
Minimum Humidity 60    
Precipitation  
Precipitation 0.00 in - - ()
Sea Level Pressure  
Sea Level Pressure 30.11 in    
Wind  
Wind Speed 12 mph (NE)    
Max Wind Speed 20 mph    
Max Gust Speed 30 mph    
Visibility 9 miles    
Events      
Averages and records for this station are not official NWS values.
T = Trace of Precipitation, MM = Missing Value Source: NWS Daily Summary

Daily Weather History Graph

Daily Weather History Graph

Search for Another Location

Airport or City:

Trip Planner

Search our weather history database for the weather conditions in past years. The results will help you decide how hot, cold, wet, or windy it might be!

Date:

Astronomy

Mar. 07, 2013 Rise Set
Actual Time 6:11 AM EST 5:42 PM EST
Civil Twilight 5:42 AM EST 6:10 PM EST
Nautical Twilight 5:09 AM EST 6:44 PM EST
Astronomical Twilight 4:36 AM EST 7:17 PM EST
Moon 3:15 AM EST (3/7) 1:20 PM EST (3/7)
Length of Visible Light 12h 27m
Length of Day
11h 30m
Waning Crescent, 20% of the Moon is Illuminated
Mar 7
Waning Crescent
Mar 11
New
Mar 19
First Quarter
Mar 27
Full
Apr 3
Last Quarter

Hourly Weather History & Observations

Time (EST) Temp. Windchill Dew Point Humidity Pressure Visibility Wind Dir Wind Speed Gust Speed Precip Events Conditions
12:15 AM 30.2 °F 20.2 °F 24.8 °F 80% 30.14 in 8.0 mi NE 12.7 mph 19.6 mph N/A   Overcast
12:35 AM 30.2 °F 20.8 °F 24.8 °F 80% 30.14 in 10.0 mi NE 11.5 mph - N/A   Overcast
12:55 AM 30.2 °F 20.2 °F 23.0 °F 75% 30.16 in 10.0 mi NE 12.7 mph 17.3 mph N/A   Overcast
1:15 AM 30.2 °F 21.3 °F 23.0 °F 75% 30.16 in 10.0 mi NE 10.4 mph 16.1 mph N/A   Overcast
1:35 AM 30.2 °F 21.3 °F 24.8 °F 80% 30.15 in 10.0 mi NE 10.4 mph 17.3 mph N/A   Overcast
1:55 AM 30.2 °F 21.3 °F 24.8 °F 80% 30.14 in 10.0 mi NE 10.4 mph 18.4 mph N/A   Overcast
2:35 AM 30.2 °F 21.3 °F 23.0 °F 75% 30.12 in 10.0 mi NE 10.4 mph 20.7 mph N/A   Overcast
2:55 AM 30.2 °F 19.3 °F 23.0 °F 75% 30.12 in 10.0 mi NE 15.0 mph 21.9 mph N/A   Overcast
3:15 AM 30.2 °F 20.2 °F 21.2 °F 69% 30.12 in 10.0 mi NE 12.7 mph 16.1 mph N/A   Overcast
3:35 AM 30.2 °F 21.3 °F 21.2 °F 69% 30.13 in 10.0 mi NE 10.4 mph 19.6 mph N/A   Overcast
3:55 AM 30.2 °F 20.8 °F 21.2 °F 69% 30.12 in 10.0 mi NNE 11.5 mph 16.1 mph N/A   Overcast
4:15 AM 30.2 °F 21.3 °F 21.2 °F 69% 30.12 in 10.0 mi NE 10.4 mph 19.6 mph N/A   Overcast
4:55 AM 30.2 °F 19.8 °F 21.2 °F 69% 30.12 in 10.0 mi NE 13.8 mph 21.9 mph N/A   Overcast
5:15 AM 30.2 °F 19.8 °F 21.2 °F 69% 30.13 in 10.0 mi NE 13.8 mph 21.9 mph N/A   Overcast
5:35 AM 30.2 °F 20.2 °F 19.4 °F 64% 30.13 in 10.0 mi NE 12.7 mph 23.0 mph N/A   Overcast
5:55 AM 30.2 °F 20.2 °F 21.2 °F 69% 30.13 in 10.0 mi NE 12.7 mph 20.7 mph N/A   Overcast
6:15 AM 30.2 °F 21.3 °F 21.2 °F 69% 30.13 in 10.0 mi NE 10.4 mph 21.9 mph N/A   Overcast
6:35 AM 30.2 °F 18.5 °F 19.4 °F 64% 30.12 in 10.0 mi NE 17.3 mph 25.3 mph N/A   Overcast
6:55 AM 30.2 °F 19.8 °F 19.4 °F 64% 30.13 in 10.0 mi NE 13.8 mph 25.3 mph N/A   Overcast
7:15 AM 30.2 °F 19.3 °F 21.2 °F 69% 30.13 in 10.0 mi NNE 15.0 mph 24.2 mph N/A   Overcast
7:55 AM 30.2 °F 19.8 °F 21.2 °F 69% 30.13 in 10.0 mi NE 13.8 mph 24.2 mph N/A   Overcast
8:15 AM 30.2 °F 19.8 °F 21.2 °F 69% 30.13 in 10.0 mi NE 13.8 mph 20.7 mph N/A   Overcast
8:35 AM 30.2 °F 18.5 °F 21.2 °F 69% 30.13 in 10.0 mi NE 17.3 mph 25.3 mph N/A   Overcast
8:55 AM 30.2 °F 17.8 °F 21.2 °F 69% 30.13 in 10.0 mi NE 19.6 mph - N/A   Overcast
9:15 AM 30.2 °F 19.3 °F 21.2 °F 69% 30.12 in 10.0 mi NE 15.0 mph 27.6 mph N/A   Overcast
9:35 AM 30.2 °F 18.1 °F 21.2 °F 69% 30.11 in 10.0 mi NE 18.4 mph 25.3 mph N/A   Overcast
9:55 AM 30.2 °F 18.1 °F 21.2 °F 69% 30.11 in 10.0 mi NE 18.4 mph 27.6 mph N/A   Overcast
10:15 AM 32.0 °F 21.6 °F 21.2 °F 64% 30.12 in 10.0 mi NE 15.0 mph 24.2 mph N/A   Overcast
10:35 AM 32.0 °F 22.1 °F 21.2 °F 64% 30.12 in 10.0 mi NE 13.8 mph 23.0 mph N/A   Overcast
10:55 AM 32.0 °F 23.0 °F 21.2 °F 64% 30.12 in 10.0 mi NE 11.5 mph 21.9 mph N/A   Overcast
11:15 AM 32.0 °F 21.2 °F 21.2 °F 64% 30.12 in 10.0 mi NE 16.1 mph 24.2 mph N/A   Overcast
11:35 AM 32.0 °F 21.2 °F 21.2 °F 64% 30.11 in 10.0 mi NE 16.1 mph 29.9 mph N/A   Overcast
11:55 AM 32.0 °F 22.5 °F 21.2 °F 64% 30.11 in 10.0 mi NE 12.7 mph 23.0 mph N/A   Overcast
12:15 PM 32.0 °F 22.1 °F 21.2 °F 64% 30.11 in 10.0 mi NE 13.8 mph 20.7 mph N/A   Overcast
12:35 PM 32.0 °F 22.1 °F 21.2 °F 64% 30.11 in 10.0 mi NE 13.8 mph 23.0 mph N/A   Overcast
12:55 PM 33.8 °F 24.8 °F 21.2 °F 60% 30.10 in 10.0 mi NE 12.7 mph 19.6 mph N/A   Overcast
1:15 PM 33.8 °F 25.8 °F 21.2 °F 60% 30.10 in 10.0 mi NE 10.4 mph 23.0 mph N/A   Overcast
1:35 PM 33.8 °F 26.4 °F 21.2 °F 60% 30.09 in 10.0 mi NE 9.2 mph - N/A   Overcast
1:55 PM 32.0 °F 24.2 °F 21.2 °F 64% 30.09 in 3.0 mi NE 9.2 mph 17.3 mph N/A   Overcast
2:15 PM 30.2 °F 22.6 °F 23.0 °F 75% 30.10 in 1.2 mi NE 8.1 mph - N/A   Overcast
2:35 PM 30.2 °F 23.4 °F 24.8 °F 80% 30.10 in 1.8 mi NNE 6.9 mph - N/A   Overcast
2:55 PM 32.0 °F 27.5 °F 24.8 °F 75% 30.09 in 2.0 mi North 4.6 mph - N/A   Overcast
3:15 PM 33.8 °F 29.6 °F 24.8 °F 70% 30.10 in 10.0 mi NNW 4.6 mph - N/A   Overcast
3:35 PM 33.8 °F 27.0 °F 24.8 °F 70% 30.09 in 10.0 mi ENE 8.1 mph - N/A   Overcast
3:55 PM 30.2 °F 22.6 °F 24.8 °F 80% 30.09 in 1.2 mi ENE 8.1 mph - N/A   Overcast
4:15 PM 30.2 °F 21.9 °F 24.8 °F 80% 30.10 in 1.2 mi ENE 9.2 mph - N/A   Overcast
4:35 PM 30.2 °F 25.4 °F 24.8 °F 80% 30.10 in 1.8 mi NE 4.6 mph - N/A   Overcast
4:55 PM 30.2 °F 24.3 °F 26.6 °F 86% 30.10 in 1.0 mi NE 5.8 mph - N/A   Overcast
5:15 PM 30.2 °F 23.4 °F 26.6 °F 86% 30.10 in 1.5 mi ENE 6.9 mph - N/A   Overcast
5:35 PM 30.2 °F 24.3 °F 26.6 °F 86% 30.11 in 1.2 mi East 5.8 mph - N/A   Overcast
5:55 PM 30.2 °F - 26.6 °F 86% 30.10 in 3.0 mi Calm Calm - N/A   Overcast
6:15 PM 30.2 °F 26.7 °F 26.6 °F 86% 30.10 in 10.0 mi NE 3.5 mph - N/A   Overcast
6:35 PM 30.2 °F 25.4 °F 24.8 °F 80% 30.10 in 10.0 mi NE 4.6 mph - N/A   Overcast
6:55 PM 30.2 °F 23.4 °F 24.8 °F 80% 30.10 in 10.0 mi NE 6.9 mph - N/A   Overcast
7:15 PM 32.0 °F 24.8 °F 23.0 °F 69% 30.09 in 10.0 mi NE 8.1 mph 17.3 mph N/A   Overcast
7:35 PM 32.0 °F 23.0 °F 23.0 °F 69% 30.09 in 10.0 mi ENE 11.5 mph - N/A   Overcast
7:55 PM 32.0 °F 25.6 °F 21.2 °F 64% 30.09 in 8.0 mi NE 6.9 mph - N/A   Overcast
8:15 PM 32.0 °F 27.5 °F 23.0 °F 69% 30.08 in 10.0 mi NE 4.6 mph - N/A   Mostly Cloudy
8:35 PM 32.0 °F 24.8 °F 23.0 °F 69% 30.08 in 10.0 mi ENE 8.1 mph - N/A   Overcast
8:55 PM 33.8 °F 24.8 °F 21.2 °F 60% 30.07 in 10.0 mi ENE 12.7 mph 19.6 mph N/A   Overcast
9:15 PM 33.8 °F 24.8 °F 21.2 °F 60% 30.08 in 10.0 mi NE 12.7 mph 19.6 mph N/A   Overcast
9:35 PM - - - N/A% 30.06 in 10.0 mi NE 17.3 mph 21.9 mph N/A   Overcast
9:55 PM 32.0 °F 21.2 °F 21.2 °F 64% 30.07 in 10.0 mi ENE 16.1 mph 24.2 mph N/A   Overcast
10:15 PM 30.2 °F 20.8 °F 23.0 °F 75% 30.07 in 8.0 mi NE 11.5 mph 19.6 mph N/A   Overcast
10:35 PM 30.2 °F 22.6 °F 21.2 °F 69% 30.07 in 10.0 mi NE 8.1 mph - N/A   Overcast
10:55 PM 32.0 °F 23.0 °F 21.2 °F 64% 30.07 in 10.0 mi NE 11.5 mph 19.6 mph N/A   Overcast
11:15 PM 30.2 °F 22.6 °F 21.2 °F 69% 30.07 in 10.0 mi NE 8.1 mph 17.3 mph N/A   Overcast
11:55 PM 32.0 °F 23.0 °F 21.2 °F 64% 30.05 in 10.0 mi NE 11.5 mph 16.1 mph N/A   Overcast